Regional Weather Roundup
Issued by NWS

Home | Current Version | Previous Version | Graphics & Text | Print | Product List | Glossary Off
Versions: 1 2 3 4 5 6 7 8 9 10 11 12 13 14 15 16 17 18 19 20 21 22 23 24 25 26 27

000
ASUS45 KBOU 152007
RWRCO

WEATHER ROUNDUP FOR COLORADO
NATIONAL WEATHER SERVICE DENVER/BOULDER CO
200 PM MDT TUE AUG 15 2017

NOTE: "FAIR" INDICATES FEW OR NO CLOUDS BELOW 12000 FEET WITH NO
SIGNIFICANT WEATHER AND/OR OBSTRUCTIONS TO VISIBILITY.

COZ001>005-013-030-031-152100-
...NORTHWEST COLORADO...

CITY           SKY/WX    TMP DP  RH WIND       PRES   REMARKS
CRAIG          LGT RAIN  67  42  40 NW14      30.01S
HAYDEN         FAIR      72  46  40 SE5       30.04F
MEEKER         FAIR      76  36  23 SE6       30.00F
RABBIT EARS PA FAIR      54  41  62 W6        30.30S
STEAMBOAT SPGS PTSUNNY   66  49  53 SE5       30.05S
WALDEN         CLOUDY    57  41  54 S10G25    30.15R
$$

COZ006>008-011-152100-
...WEST CENTRAL VALLEYS...

CITY           SKY/WX    TMP DP  RH WIND       PRES   REMARKS
GRAND JUNCTION FAIR      83  32  16 S6        29.92S
MONTROSE       FAIR      75  32  20 SW8       30.03R
EAGLE          FAIR      76  35  22 W14       30.04F
RIFLE          PTSUNNY   79  33  19 N3        29.95F
DELTA          FAIR      83  27  13 S8        29.98S
NUCLA          FAIR      79  27  14 S16G22    30.08S
$$

COZ017>023-064>068-152100-
...SOUTHWEST COLORADO...

CITY           SKY/WX    TMP DP  RH WIND       PRES   REMARKS
DURANGO        FAIR      75  31  19 W16G26    30.10F
CORTEZ         FAIR      76  26  15 W8        30.07F
PAGOSA SPRINGS FAIR      72  25  17 W9        30.17F
TELLURIDE      NOT AVBL
WOLF CREEK PAS FAIR      50  32  50 S17G26    30.47F
$$

COZ009-010-012-014-032>034-037-058>063-152100-
...CENTRAL COLORADO...

CITY           SKY/WX    TMP DP  RH WIND       PRES   REMARKS
ASPEN          FAIR      72  26  18 N10G16    30.10S
BUENA VISTA    FAIR      72  28  19 SW14      30.12F
COPPER MTN     LGT RAIN  54  30  40 S9G24     30.42S
BERTHOUD PASS  CLOUDY    46  43  87 SW10G22   30.44S
COTTONWOOD PAS FAIR      64  21  19 W8        30.27S
GUNNISON       FAIR      69  37  30 SW6       30.14F
KREMMLING      FAIR      77  39  25 N12G22    30.08F
LEADVILLE      FAIR      60  31  33 CALM      30.24F
MONARCH PASS   FAIR      54  27  35 W21G29    30.52S
SALIDA         FAIR      77  30  17 W7        30.15F
SUNLIGHT       FAIR      54  36  50 SW12G22   30.35S
WILKERSON PASS FAIR      55  28  35 SW13G20   30.38S
$$

COZ069>075-152100-
...SAN LUIS VALLEY/SANGRE DE CRISTO MOUNTAINS...

CITY           SKY/WX    TMP DP  RH WIND       PRES   REMARKS
ALAMOSA        FAIR      77  32  19 W20G29    30.11F
DEL NORTE      FAIR      73  29  19 SW9G17    30.14F
LA VETA PASS   NOT AVBL
SAGUACHE       FAIR      73  34  23 SE13      30.11F
$$

COZ035-036-038>040-152100-
...NORTHERN COLORADO FRONT RANGE...

CITY           SKY/WX    TMP DP  RH WIND       PRES   REMARKS
DENVER INTL AP PTSUNNY   82  51  34 VRB5      29.91F
DMNS CITY PARK   N/A     80  50  35 N10G18    29.91F
AURORA         PTSUNNY   80  50  34 NE3       29.93F
FRONT RANGE AP FAIR      79  54  41 NE3       29.93F
ERIE MUNI ARPT FAIR      80  52  37 N6        29.94F
BOULDER MUN AP CLOUDY    73  52  46 CALM      29.93S
CENTENNIAL     PTSUNNY   81  50  33 NE9       29.94F
BROOMFIELD     FAIR      79  52  38 N7        29.95F
FORT COLLINS   FAIR      80  58  46 NE7       29.90F
LONGMONT       FAIR      78  55  44 N6        29.93S
$$

COZ041-046-047-076>085-087-088-152100-
...PIKES PEAK/PALMER DIVIDE AND SOUTHERN FOOTHILLS...

CITY           SKY/WX    TMP DP  RH WIND       PRES   REMARKS
COLO. SPRINGS  FAIR      83  43  24 VRB5      29.97F
A. F. ACADEMY  PTSUNNY   81  41  24 S6        29.97F
SCHRIEVER AFB  FAIR      80  46  29 S8        29.97F
CHEYENNE MTN   FAIR      77  44  31 NE8       29.96F
ELLICOTT       FAIR     N/A N/A N/A VRB5      29.96F
FALCON         FAIR      80  40  24 S8G16     30.03F
FORT CARSON    MOSUNNY   85  43  23 SW15      29.92F
LIMON          FAIR      81  56  42 SE8       29.92F
MONUMENT HILL  PTSUNNY   73  41  31 NE5       30.04S
CANON CITY     SUNNY     90  43  19 W12       29.89F
WALSENBURG     FAIR      88  36  15 W17G29    29.94F
TRINIDAD       FAIR      86  43  22 S17       29.94S
$$

COZ042>045-048>051-090-091-152100-
...NORTHEAST COLORADO...

CITY           SKY/WX    TMP DP  RH WIND       PRES   REMARKS
GREELEY ARPT   FAIR      83  59  44 VRB5      29.89F
AKRON          FAIR      81  59  47 NE7       29.88F
BURLINGTON     FAIR      83  63  50 S16G22    29.86F
WRAY           NOT AVBL
YUMA           NOT AVBL
STERLING       FAIR      81  64  57 NE10      29.84F
HOLYOKE        FAIR      86  64  48 E9        29.84F
FORT MORGAN    FAIR      84  56  38 E7        29.89S
$$

COZ086-089-092>099-152100-
...SOUTHEAST COLORADO...

CITY           SKY/WX    TMP DP  RH WIND       PRES   REMARKS
PUEBLO         FAIR      92  46  20 S10       29.84F
LA JUNTA       FAIR      88  62  41 E9        29.85F
LAMAR          FAIR      87  62  43 VRB7      29.80F
SPRINGFIELD      N/A     85  60  42 S5        29.85F
$$




USA.gov is the U.S. government's official web portal to all federal, state and local government web resources and services.